| time (UTC) | temp F | wind direction | speed MPH | gust MPH | rain 1hr in | rain 24hr in | rain mn in | humidity % | barometer mb |
| 20260506121611 | 54 | 331 | 11.0 | 16.0 | 0.00 | 0.00 | 0.00 | 80 | 1014.2 |
| 20260506121111 | 54 | 26 | 6.0 | 16.0 | 0.00 | 0.00 | 0.00 | 79 | 1014.3 |
| 20260506120611 | 54 | 22 | 10.0 | 16.0 | 0.00 | 0.00 | 0.00 | 78 | 1014.2 |
| 20260506120111 | 54 | 360 | 5.0 | 16.0 | 0.00 | 0.00 | 0.00 | 78 | 1014.2 |
| 20260506115615 | 55 | 312 | 11.0 | 16.0 | 0.00 | 0.00 | 0.00 | 77 | 1014.1 |
| 20260506115111 | 55 | 360 | 8.0 | 16.0 | 0.00 | 0.00 | 0.00 | 77 | 1014.0 |
| 20260506114613 | 55 | 336 | 5.0 | 14.0 | 0.00 | 0.00 | 0.00 | 76 | 1014.0 |
| 20260506114112 | 55 | 323 | 8.0 | 15.0 | 0.00 | 0.00 | 0.00 | 76 | 1014.0 |
| 20260506113614 | 55 | 360 | 9.0 | 15.0 | 0.00 | 0.00 | 0.00 | 76 | 1013.7 |
| 20260506113114 | 55 | 360 | 4.0 | 14.0 | 0.00 | 0.00 | 0.00 | 76 | 1013.7 |
| 20260506112614 | 55 | 313 | 9.0 | 14.0 | 0.00 | 0.00 | 0.00 | 75 | 1013.6 |
| 20260506112113 | 56 | 5 | 4.0 | 15.0 | 0.00 | 0.00 | 0.00 | 76 | 1013.7 |
| 20260506111613 | 55 | 5 | 3.0 | 17.0 | 0.00 | 0.00 | 0.00 | 76 | 1013.3 |
| 20260506111111 | 55 | 5 | 12.0 | 18.0 | 0.00 | 0.00 | 0.00 | 75 | 1013.1 |
| 20260506110610 | 56 | 22 | 10.0 | 18.0 | 0.00 | 0.00 | 0.00 | 75 | 1013.2 |
| 20260506110113 | 56 | 342 | 14.0 | 18.0 | 0.00 | 0.00 | 0.00 | 75 | 1013.2 |
| 20260506105612 | 56 | 317 | 5.0 | 17.0 | 0.00 | 0.00 | 0.00 | 75 | 1013.0 |
| 20260506105111 | 56 | 339 | 11.0 | 17.0 | 0.00 | 0.00 | 0.00 | 75 | 1012.9 |
| 20260506104611 | 56 | 329 | 6.0 | 15.0 | 0.00 | 0.00 | 0.00 | 75 | 1012.8 |
| 20260506104111 | 56 | 24 | 4.0 | 15.0 | 0.00 | 0.00 | 0.00 | 75 | 1012.9 |
| 20260506103616 | 57 | 330 | 4.0 | 15.0 | 0.00 | 0.00 | 0.00 | 75 | 1012.8 |
| 20260506103114 | 57 | 352 | 8.0 | 15.0 | 0.00 | 0.00 | 0.00 | 75 | 1012.7 |
| 20260506102615 | 57 | 326 | 13.0 | 12.0 | 0.00 | 0.00 | 0.00 | 75 | 1012.7 |
| 20260506102113 | 57 | 348 | 5.0 | 13.0 | 0.00 | 0.00 | 0.00 | 75 | 1012.5 |
| 20260506101611 | 57 | 46 | 3.0 | 13.0 | 0.00 | 0.00 | 0.00 | 75 | 1012.4 |
| 20260506101110 | 57 | 352 | 2.0 | 13.0 | 0.00 | 0.00 | 0.00 | 76 | 1012.3 |
| 20260506100611 | 57 | 15 | 2.0 | 14.0 | 0.00 | 0.00 | 0.00 | 76 | 1012.2 |
| 20260506100113 | 57 | 21 | 5.0 | 14.0 | 0.00 | 0.00 | 0.00 | 76 | 1012.3 |
| 20260506095629 | 57 | 32 | 5.0 | 13.0 | 0.00 | 0.00 | 0.00 | 75 | 1012.1 |
| 20260506095131 | 57 | 360 | 8.0 | 13.0 | 0.00 | 0.00 | 0.00 | 75 | 1012.0 |
| 20260506094631 | 57 | 28 | 6.0 | 14.0 | 0.00 | 0.00 | 0.00 | 76 | 1012.0 |
| 20260506094129 | 57 | 10 | 10.0 | 14.0 | 0.00 | 0.00 | 0.00 | 75 | 1011.9 |
| 20260506093628 | 57 | 31 | 5.0 | 13.0 | 0.00 | 0.00 | 0.00 | 75 | 1012.1 |
| 20260506093129 | 57 | 32 | 4.0 | 12.0 | 0.00 | 0.00 | 0.00 | 75 | 1012.1 |
| 20260506092627 | 58 | 34 | 3.0 | 10.0 | 0.00 | 0.00 | 0.00 | 76 | 1011.8 |
| 20260506092128 | 58 | 32 | 5.0 | 11.0 | 0.00 | 0.00 | 0.00 | 76 | 1011.8 |
| 20260506091627 | 58 | 9 | 7.0 | 13.0 | 0.00 | 0.00 | 0.00 | 76 | 1011.9 |
| 20260506091129 | 58 | 10 | 5.0 | 13.0 | 0.00 | 0.00 | 0.00 | 76 | 1011.8 |
| 20260506090630 | 58 | 9 | 5.0 | 13.0 | 0.00 | 0.00 | 0.00 | 76 | 1011.8 |
| 20260506090126 | 58 | 360 | 4.0 | 13.0 | 0.00 | 0.00 | 0.00 | 76 | 1011.9 |
| 20260506085628 | 58 | 28 | 5.0 | 11.0 | 0.00 | 0.00 | 0.00 | 76 | 1011.8 |
| 20260506085128 | 58 | 360 | 6.0 | 11.0 | 0.00 | 0.00 | 0.00 | 76 | 1011.6 |
| 20260506084627 | 58 | 5 | 9.0 | 11.0 | 0.00 | 0.00 | 0.00 | 76 | 1011.6 |
| 20260506084125 | 59 | 5 | 1.0 | 11.0 | 0.00 | 0.00 | 0.00 | 77 | 1011.6 |
| 20260506083626 | 59 | 5 | 3.0 | 11.0 | 0.00 | 0.00 | 0.00 | 76 | 1011.4 |
| 20260506083125 | 59 | 10 | 8.0 | 11.0 | 0.00 | 0.00 | 0.00 | 76 | 1011.5 |
| 20260506082624 | 59 | 11 | 4.0 | 11.0 | 0.00 | 0.00 | 0.00 | 77 | 1011.3 |
| 20260506082126 | 59 | 9 | 8.0 | 11.0 | 0.00 | 0.00 | 0.00 | 77 | 1011.4 |
| 20260506081624 | 59 | 360 | 3.0 | 10.0 | 0.00 | 0.00 | 0.00 | 77 | 1011.6 |
| 20260506081125 | 59 | 30 | 2.0 | 9.0 | 0.00 | 0.00 | 0.00 | 77 | 1011.3 |
| 20260506080626 | 59 | 360 | 5.0 | 11.0 | 0.00 | 0.00 | 0.00 | 76 | 1011.4 |
| 20260506080123 | 59 | 30 | 3.0 | 11.0 | 0.00 | 0.00 | 0.00 | 76 | 1011.5 |
| 20260506073125 | 59 | 5 | 5.0 | 10.0 | 0.00 | 0.00 | 0.00 | 78 | 1010.9 |
| 20260506072623 | 59 | 5 | 4.0 | 13.0 | 0.00 | 0.00 | 0.00 | 78 | 1010.8 |
| 20260506072121 | 59 | 9 | 5.0 | 13.0 | 0.00 | 0.00 | 0.00 | 78 | 1010.7 |
| 20260506071622 | 59 | 10 | 7.0 | 12.0 | 0.00 | 0.00 | 0.00 | 78 | 1011.0 |
| 20260506071120 | 59 | 9 | 4.0 | 10.0 | 0.00 | 0.00 | 0.00 | 78 | 1010.9 |
| 20260506070622 | 59 | 9 | 5.0 | 10.0 | 0.00 | 0.00 | 0.00 | 78 | 1010.8 |
| 20260506070122 | 59 | 11 | 7.0 | 10.0 | 0.00 | 0.00 | 0.00 | 78 | 1011.1 |
| 20260506062121 | 60 | 10 | 4.0 | 12.0 | 0.00 | 0.00 | 0.00 | 78 | 1011.1 |
| 20260506061621 | 60 | 5 | 8.0 | 14.0 | 0.00 | 0.00 | 0.00 | 78 | 1010.9 |
| 20260506061119 | 60 | 5 | 5.0 | 14.0 | 0.00 | 0.00 | 0.00 | 78 | 1011.0 |
| 20260506060619 | 60 | 9 | 7.0 | 14.0 | 0.00 | 0.00 | 0.00 | 77 | 1011.1 |
| 20260506060121 | 60 | 360 | 2.0 | 12.0 | 0.00 | 0.00 | 0.00 | 78 | 1011.1 |
| 20260506051119 | 62 | 26 | 10.0 | 14.0 | 0.00 | 0.00 | 0.00 | 78 | 1011.1 |
| 20260506050619 | 62 | 9 | 4.0 | 15.0 | 0.00 | 0.00 | 0.00 | 78 | 1011.2 |
| 20260506050121 | 62 | 26 | 6.0 | 15.0 | 0.00 | 0.00 | 0.00 | 78 | 1010.9 |
| 20260506045120 | 62 | 5 | 3.0 | 11.0 | 0.00 | 0.00 | 0.00 | 78 | 1010.8 |
| 20260506044617 | 62 | 9 | 2.0 | 12.0 | 0.00 | 0.00 | 0.00 | 78 | 1010.8 |
| 20260506044118 | 63 | 9 | 5.0 | 13.0 | 0.00 | 0.00 | 0.00 | 78 | 1010.8 |
| 20260506043618 | 63 | 5 | 3.0 | 13.0 | 0.00 | 0.00 | 0.00 | 78 | 1010.9 |
| 20260506043116 | 63 | 360 | 3.0 | 16.0 | 0.00 | 0.00 | 0.00 | 78 | 1010.8 |
| 20260506042618 | 63 | 26 | 8.0 | 16.0 | 0.00 | 0.00 | 0.00 | 77 | 1010.8 |
| 20260506042116 | 63 | 24 | 10.0 | 15.0 | 0.00 | 0.00 | 0.00 | 77 | 1010.8 |
| 20260506041616 | 64 | 24 | 5.0 | 15.0 | 0.00 | 0.00 | 0.00 | 76 | 1010.9 |
| 20260506041117 | 64 | 5 | 4.0 | 20.0 | 0.00 | 0.00 | 0.00 | 77 | 1010.8 |
| 20260506040616 | 64 | 25 | 6.0 | 20.0 | 0.00 | 0.00 | 0.00 | 77 | 1010.7 |
| 20260506040116 | 64 | 9 | 7.0 | 16.0 | 0.00 | 0.00 | 0.00 | 77 | 1010.8 |
| 20260506035617 | 64 | 24 | 5.0 | 16.0 | 0.00 | 0.00 | 0.00 | 76 | 1010.7 |
| 20260506035117 | 65 | 360 | 4.0 | 16.0 | 0.00 | 0.00 | 0.00 | 76 | 1010.6 |
| 20260506034615 | 65 | 5 | 6.0 | 16.0 | 0.00 | 0.00 | 0.00 | 76 | 1010.2 |
| 20260506034114 | 65 | 9 | 10.0 | 14.0 | 0.00 | 0.00 | 0.00 | 76 | 1010.2 |
| 20260506033615 | 65 | 10 | 4.0 | 14.0 | 0.00 | 0.00 | 0.00 | 76 | 1010.0 |
| 20260506033114 | 65 | 9 | 5.0 | 15.0 | 0.00 | 0.00 | 0.00 | 76 | 1009.8 |
| 20260506032617 | 66 | 5 | 6.0 | 16.0 | 0.00 | 0.00 | 0.00 | 75 | 1009.8 |
| 20260506032115 | 66 | 5 | 11.0 | 16.0 | 0.00 | 0.00 | 0.00 | 75 | 1009.8 |
| 20260506031615 | 67 | 33 | 9.0 | 17.0 | 0.00 | 0.00 | 0.00 | 75 | 1009.7 |
| 20260506031115 | 67 | 10 | 7.0 | 17.0 | 0.00 | 0.00 | 0.00 | 75 | 1009.6 |
| 20260506030614 | 67 | 32 | 10.0 | 17.0 | 0.00 | 0.00 | 0.00 | 75 | 1009.6 |
| 20260506030115 | 68 | 29 | 5.0 | 17.0 | 0.00 | 0.00 | 0.00 | 75 | 1009.6 |
| 20260506025613 | 68 | 35 | 11.0 | 14.0 | 0.00 | 0.00 | 0.00 | 74 | 1009.5 |
| 20260506025115 | 68 | 11 | 7.0 | 14.0 | 0.00 | 0.00 | 0.00 | 74 | 1009.3 |
| 20260506024615 | 68 | 30 | 5.0 | 14.0 | 0.00 | 0.00 | 0.00 | 73 | 1009.1 |
| 20260506024115 | 68 | 28 | 6.0 | 14.0 | 0.00 | 0.00 | 0.00 | 73 | 1009.0 |
| 20260506023613 | 69 | 9 | 4.0 | 14.0 | 0.00 | 0.00 | 0.00 | 73 | 1008.8 |
| 20260506023113 | 69 | 9 | 5.0 | 11.0 | 0.00 | 0.00 | 0.00 | 73 | 1008.8 |
| 20260506022614 | 69 | 32 | 9.0 | 11.0 | 0.00 | 0.00 | 0.00 | 72 | 1008.8 |
| 20260506022114 | 69 | 360 | 3.0 | 12.0 | 0.00 | 0.00 | 0.00 | 72 | 1008.7 |
| 20260506021614 | 69 | 27 | 2.0 | 12.0 | 0.00 | 0.00 | 0.00 | 72 | 1008.4 |
| 20260506021112 | 69 | 10 | 8.0 | 13.0 | 0.00 | 0.00 | 0.00 | 71 | 1008.3 |
| 20260506020614 | 69 | 29 | 6.0 | 13.0 | 0.00 | 0.00 | 0.00 | 71 | 1008.4 |
| 20260506020111 | 69 | 26 | 12.0 | 13.0 | 0.00 | 0.00 | 0.00 | 71 | 1008.3 |
| 20260506015610 | 69 | 30 | 8.0 | 12.0 | 0.00 | 0.00 | 0.00 | 72 | 1008.1 |
| 20260506015113 | 70 | 5 | 5.0 | 12.0 | 0.00 | 0.00 | 0.00 | 72 | 1007.9 |
| 20260506014614 | 70 | 25 | 3.0 | 12.0 | 0.00 | 0.00 | 0.00 | 72 | 1007.6 |
| 20260506014113 | 70 | 9 | 10.0 | 11.0 | 0.00 | 0.00 | 0.00 | 72 | 1007.6 |
| 20260506013613 | 71 | 9 | 4.0 | 11.0 | 0.00 | 0.00 | 0.00 | 71 | 1007.8 |
| 20260506013114 | 71 | 9 | 7.0 | 11.0 | 0.00 | 0.00 | 0.00 | 71 | 1007.7 |
| 20260506012613 | 71 | 27 | 3.0 | 11.0 | 0.00 | 0.00 | 0.00 | 71 | 1007.4 |
| 20260506012111 | 71 | 33 | 4.0 | 11.0 | 0.00 | 0.00 | 0.00 | 71 | 1007.4 |
| 20260506011610 | 72 | 5 | 5.0 | 11.0 | 0.00 | 0.00 | 0.00 | 71 | 1007.2 |
| 20260506011111 | 72 | 10 | 2.0 | 11.0 | 0.00 | 0.00 | 0.00 | 70 | 1007.3 |
| 20260506010612 | 72 | 9 | 10.0 | 11.0 | 0.00 | 0.00 | 0.00 | 70 | 1007.2 |
| 20260506010111 | 72 | 9 | 3.0 | 12.0 | 0.00 | 0.00 | 0.00 | 69 | 1007.2 |
| 20260506005611 | 73 | 360 | 2.0 | 12.0 | 0.00 | 0.00 | 0.00 | 69 | 1007.2 |
| 20260506005115 | 73 | 9 | 5.0 | 12.0 | 0.00 | 0.00 | 0.00 | 69 | 1007.1 |
| 20260506004610 | 73 | 13 | 3.0 | 13.0 | 0.00 | 0.00 | 0.00 | 70 | 1006.7 |
| 20260506004112 | 73 | 360 | 5.0 | 15.0 | 0.00 | 0.00 | 0.00 | 69 | 1006.9 |
| 20260506003614 | 74 | 360 | 3.0 | 15.0 | 0.00 | 0.00 | 0.00 | 69 | 1006.3 |
| 20260506003111 | 75 | 11 | 7.0 | 15.0 | 0.00 | 0.00 | 0.00 | 69 | 1006.2 |
| 20260506002611 | 75 | 11 | 8.0 | 14.0 | 0.00 | 0.00 | 0.00 | 68 | 1006.5 |
| 20260506002112 | 76 | 9 | 10.0 | 11.0 | 0.00 | 0.00 | 0.00 | 68 | 1006.4 |
| 20260506001612 | 76 | 360 | 4.0 | 12.0 | 0.00 | 0.00 | 0.00 | 67 | 1006.2 |
| 20260506001114 | 77 | 44 | 5.0 | 14.0 | 0.00 | 0.00 | 0.00 | 66 | 1006.2 |
| 20260506000612 | 77 | 10 | 8.0 | 15.0 | 0.00 | 0.00 | 0.00 | 65 | 1006.2 |
| 20260506000110 | 78 | 360 | 6.0 | 16.0 | 0.00 | 0.00 | 0.00 | 64 | 1006.0 |
| 20260505235612 | 78 | 36 | 4.0 | 20.0 | 0.00 | 0.00 | 0.00 | 63 | 1006.0 |
| 20260505235113 | 78 | 9 | 9.0 | 20.0 | 0.00 | 0.00 | 0.00 | 63 | 1005.9 |
| 20260505234614 | 79 | 10 | 12.0 | 16.0 | 0.00 | 0.00 | 0.00 | 63 | 1006.0 |
| 20260505234110 | 79 | 40 | 12.0 | 16.0 | 0.00 | 0.00 | 0.00 | 62 | 1005.9 |
| 20260505233613 | 80 | 46 | 4.0 | 16.0 | 0.00 | 0.00 | 0.00 | 63 | 1005.8 |
| 20260505233111 | 80 | 10 | 8.0 | 16.0 | 0.00 | 0.00 | 0.00 | 62 | 1005.8 |
| 20260505232613 | 81 | 360 | 5.0 | 17.0 | 0.00 | 0.00 | 0.00 | 62 | 1005.7 |
| 20260505232113 | 81 | 360 | 4.0 | 19.0 | 0.00 | 0.00 | 0.00 | 61 | 1005.7 |
| 20260505231611 | 81 | 360 | 17.0 | 19.0 | 0.00 | 0.00 | 0.00 | 60 | 1005.9 |
| 20260505231111 | 82 | 342 | 12.0 | 17.0 | 0.00 | 0.00 | 0.00 | 59 | 1005.6 |
| 20260505230613 | 82 | 337 | 12.0 | 17.0 | 0.00 | 0.00 | 0.00 | 58 | 1005.5 |
| 20260505230112 | 83 | 302 | 14.0 | 17.0 | 0.00 | 0.00 | 0.00 | 59 | 1005.7 |
| 20260505225613 | 84 | 304 | 8.0 | 17.0 | 0.00 | 0.00 | 0.00 | 59 | 1005.6 |
| 20260505225114 | 84 | 309 | 8.0 | 17.0 | 0.00 | 0.00 | 0.00 | 59 | 1005.4 |
| 20260505224610 | 85 | 307 | 12.0 | 17.0 | 0.00 | 0.00 | 0.00 | 57 | 1005.2 |
| 20260505224111 | 86 | 19 | 9.0 | 16.0 | 0.00 | 0.00 | 0.00 | 57 | 1005.0 |
| 20260505223614 | 86 | 321 | 4.0 | 16.0 | 0.00 | 0.00 | 0.00 | 56 | 1005.0 |
| 20260505223113 | 86 | 60 | 6.0 | 16.0 | 0.00 | 0.00 | 0.00 | 55 | 1005.0 |
| 20260505222611 | 87 | 5 | 8.0 | 16.0 | 0.00 | 0.00 | 0.00 | 52 | 1005.0 |
| 20260505222114 | 87 | 313 | 8.0 | 15.0 | 0.00 | 0.00 | 0.00 | 51 | 1004.9 |
| 20260505221611 | 87 | 331 | 10.0 | 15.0 | 0.00 | 0.00 | 0.00 | 50 | 1004.8 |
| 20260505221113 | 87 | 346 | 9.0 | 14.0 | 0.00 | 0.00 | 0.00 | 51 | 1004.7 |
| 20260505220610 | 87 | 319 | 10.0 | 13.0 | 0.00 | 0.00 | 0.00 | 50 | 1004.7 |
| 20260505220113 | 87 | 318 | 9.0 | 15.0 | 0.00 | 0.00 | 0.00 | 50 | 1004.5 |
| 20260505215614 | 88 | 304 | 9.0 | 16.0 | 0.00 | 0.00 | 0.00 | 49 | 1004.6 |
| 20260505215112 | 89 | 301 | 12.0 | 16.0 | 0.00 | 0.00 | 0.00 | 50 | 1004.5 |
| 20260505214612 | 89 | 337 | 13.0 | 16.0 | 0.00 | 0.00 | 0.00 | 51 | 1004.6 |
| 20260505214111 | 89 | 312 | 5.0 | 15.0 | 0.00 | 0.00 | 0.00 | 50 | 1004.6 |
| 20260505213613 | 90 | 328 | 12.0 | 15.0 | 0.00 | 0.00 | 0.00 | 49 | 1004.5 |
| 20260505213111 | 91 | 281 | 6.0 | 14.0 | 0.00 | 0.00 | 0.00 | 49 | 1004.6 |
| 20260505212614 | 91 | 254 | 2.0 | 14.0 | 0.00 | 0.00 | 0.00 | 50 | 1004.5 |
| 20260505212110 | 91 | 245 | 4.0 | 14.0 | 0.00 | 0.00 | 0.00 | 49 | 1004.5 |
| 20260505211613 | 91 | 294 | 8.0 | 13.0 | 0.00 | 0.00 | 0.00 | 48 | 1004.6 |
| 20260505211112 | 92 | 236 | 3.0 | 13.0 | 0.00 | 0.00 | 0.00 | 49 | 1004.7 |
| 20260505210614 | 92 | 285 | 6.0 | 10.0 | 0.00 | 0.00 | 0.00 | 50 | 1004.8 |
| 20260505210113 | 92 | 234 | 9.0 | 10.0 | 0.00 | 0.00 | 0.00 | 50 | 1004.8 |
| 20260505205613 | 92 | 278 | 3.0 | 11.0 | 0.00 | 0.00 | 0.00 | 50 | 1004.8 |
| 20260505205114 | 91 | 219 | 3.0 | 11.0 | 0.00 | 0.00 | 0.00 | 50 | 1004.9 |
| 20260505204612 | 92 | 275 | 11.0 | 11.0 | 0.00 | 0.00 | 0.00 | 51 | 1005.0 |
| 20260505204111 | 91 | 208 | 5.0 | 12.0 | 0.00 | 0.00 | 0.00 | 52 | 1005.0 |
| 20260505203612 | 90 | 286 | 4.0 | 12.0 | 0.00 | 0.00 | 0.00 | 54 | 1005.2 |
| 20260505203112 | 90 | 236 | 10.0 | 14.0 | 0.00 | 0.00 | 0.00 | 53 | 1005.2 |
| 20260505202611 | 89 | 266 | 7.0 | 14.0 | 0.00 | 0.00 | 0.00 | 54 | 1005.1 |
| 20260505202113 | 89 | 212 | 9.0 | 14.0 | 0.00 | 0.00 | 0.00 | 55 | 1005.4 |
| 20260505201611 | 89 | 203 | 8.0 | 11.0 | 0.00 | 0.00 | 0.00 | 57 | 1005.5 |
| 20260505201113 | 88 | 209 | 8.0 | 12.0 | 0.00 | 0.00 | 0.00 | 59 | 1005.5 |
| 20260505200610 | 88 | 211 | 9.0 | 14.0 | 0.00 | 0.00 | 0.00 | 58 | 1005.4 |
| 20260505200112 | 88 | 234 | 6.0 | 17.0 | 0.00 | 0.00 | 0.00 | 58 | 1005.5 |
| 20260505195612 | 88 | 223 | 5.0 | 17.0 | 0.00 | 0.00 | 0.00 | 57 | 1005.5 |
| 20260505195114 | 89 | 217 | 6.0 | 17.0 | 0.00 | 0.00 | 0.00 | 57 | 1005.6 |
| 20260505194612 | 89 | 169 | 4.0 | 16.0 | 0.00 | 0.00 | 0.00 | 57 | 1005.5 |
| 20260505194113 | 89 | 229 | 7.0 | 15.0 | 0.00 | 0.00 | 0.00 | 58 | 1005.5 |
| 20260505193611 | 88 | 248 | 3.0 | 16.0 | 0.00 | 0.00 | 0.00 | 57 | 1005.5 |
| 20260505193111 | 88 | 247 | 8.0 | 16.0 | 0.00 | 0.00 | 0.00 | 58 | 1005.5 |
| 20260505192544 | 88 | 246 | 11.0 | 14.0 | 0.00 | 0.00 | 0.00 | 60 | 1005.8 |
| 20260505192114 | 87 | 235 | 5.0 | 14.0 | 0.00 | 0.00 | 0.00 | 61 | 1005.6 |
| 20260505191614 | 87 | 236 | 6.0 | 14.0 | 0.00 | 0.00 | 0.00 | 61 | 1005.5 |
| 20260505191114 | 87 | 215 | 13.0 | 12.0 | 0.00 | 0.00 | 0.00 | 64 | 1005.6 |
| 20260505190612 | 86 | 236 | 5.0 | 15.0 | 0.00 | 0.00 | 0.00 | 64 | 1005.5 |
| 20260505190113 | 85 | 177 | 5.0 | 15.0 | 0.00 | 0.00 | 0.00 | 65 | 1005.6 |
| 20260505185613 | 85 | 203 | 6.0 | 15.0 | 0.00 | 0.00 | 0.00 | 67 | 1005.5 |
| 20260505185114 | 84 | 179 | 6.0 | 15.0 | 0.00 | 0.00 | 0.00 | 67 | 1005.6 |
| 20260505184611 | 84 | 190 | 4.0 | 15.0 | 0.00 | 0.00 | 0.00 | 66 | 1005.6 |
| 20260505184112 | 84 | 167 | 12.0 | 15.0 | 0.00 | 0.00 | 0.00 | 68 | 1005.6 |
| 20260505183611 | 84 | 154 | 6.0 | 15.0 | 0.00 | 0.00 | 0.00 | 68 | 1005.8 |
| 20260505183113 | 84 | 225 | 7.0 | 15.0 | 0.00 | 0.00 | 0.00 | 68 | 1005.7 |
| 20260505182615 | 83 | 238 | 13.0 | 15.0 | 0.00 | 0.00 | 0.00 | 68 | 1005.8 |
| 20260505182113 | 83 | 257 | 10.0 | 17.0 | 0.00 | 0.00 | 0.00 | 69 | 1005.8 |
| 20260505181612 | 83 | 225 | 14.0 | 17.0 | 0.00 | 0.00 | 0.00 | 69 | 1005.9 |
| 20260505181115 | 83 | 213 | 5.0 | 16.0 | 0.00 | 0.00 | 0.00 | 69 | 1005.8 |
| 20260505180613 | 82 | 185 | 8.0 | 20.0 | 0.00 | 0.00 | 0.00 | 70 | 1005.9 |
| 20260505180111 | 82 | 209 | 6.0 | 20.0 | 0.00 | 0.00 | 0.00 | 70 | 1005.9 |
| 20260505175613 | 82 | 249 | 4.0 | 19.0 | 0.00 | 0.00 | 0.00 | 70 | 1006.0 |
| 20260505175111 | 82 | 216 | 9.0 | 18.0 | 0.00 | 0.00 | 0.00 | 70 | 1005.9 |
| 20260505174611 | 82 | 202 | 10.0 | 17.0 | 0.00 | 0.00 | 0.00 | 71 | 1005.9 |
| 20260505174111 | 82 | 219 | 9.0 | 17.0 | 0.00 | 0.00 | 0.00 | 71 | 1005.9 |
| 20260505173609 | 82 | 236 | 4.0 | 24.0 | 0.00 | 0.00 | 0.00 | 71 | 1005.9 |
| 20260505173110 | 82 | 214 | 13.0 | 24.0 | 0.00 | 0.00 | 0.00 | 71 | 1005.9 |
| 20260505172636 | 81 | 224 | 7.0 | 24.0 | 0.00 | 0.00 | 0.00 | 71 | 1005.9 |
| 20260505172136 | 82 | 192 | 9.0 | 20.0 | 0.00 | 0.00 | 0.00 | 71 | 1005.9 |
| 20260505171634 | 81 | 219 | 9.0 | 20.0 | 0.00 | 0.00 | 0.00 | 72 | 1006.0 |
| 20260505171135 | 81 | 212 | 6.0 | 19.0 | 0.00 | 0.00 | 0.00 | 72 | 1006.0 |
| 20260505170634 | 81 | 221 | 16.0 | 19.0 | 0.00 | 0.00 | 0.00 | 71 | 1005.9 |
| 20260505170135 | 81 | 242 | 5.0 | 21.0 | 0.00 | 0.00 | 0.00 | 72 | 1005.9 |
| 20260505165633 | 81 | 212 | 6.0 | 23.0 | 0.00 | 0.00 | 0.00 | 72 | 1005.9 |
| 20260505165133 | 81 | 215 | 7.0 | 23.0 | 0.00 | 0.00 | 0.00 | 71 | 1005.9 |
| 20260505164633 | 81 | 209 | 9.0 | 14.0 | 0.00 | 0.00 | 0.00 | 72 | 1005.8 |
| 20260505164134 | 81 | 175 | 7.0 | 13.0 | 0.00 | 0.00 | 0.00 | 73 | 1005.9 |
| 20260505163634 | 80 | 246 | 8.0 | 19.0 | 0.00 | 0.00 | 0.00 | 76 | 1006.0 |
| 20260505163136 | 79 | 259 | 4.0 | 21.0 | 0.00 | 0.00 | 0.00 | 75 | 1005.9 |
| 20260505162644 | 78 | 136 | 9.0 | 21.0 | 0.00 | 0.00 | 0.00 | 75 | 1005.9 |
| 20260505162134 | 79 | 246 | 11.0 | 19.0 | 0.00 | 0.00 | 0.00 | 75 | 1005.9 |
| 20260505161637 | 78 | 220 | 6.0 | 20.0 | 0.00 | 0.00 | 0.00 | 75 | 1005.9 |
| 20260505161134 | 78 | 229 | 7.0 | 22.0 | 0.00 | 0.00 | 0.00 | 75 | 1005.9 |
| 20260505160633 | 78 | 254 | 7.0 | 23.0 | 0.00 | 0.00 | 0.00 | 75 | 1005.9 |
| 20260505160132 | 78 | 227 | 9.0 | 23.0 | 0.00 | 0.00 | 0.00 | 75 | 1005.8 |
| 20260505153133 | 76 | 230 | 8.0 | 23.0 | 0.00 | 0.00 | 0.00 | 78 | 1005.6 |
| 20260505152635 | 76 | 190 | 4.0 | 22.0 | 0.00 | 0.00 | 0.00 | 78 | 1005.6 |
| 20260505152133 | 76 | 195 | 10.0 | 19.0 | 0.00 | 0.00 | 0.00 | 78 | 1005.6 |
| 20260505151632 | 76 | 203 | 9.0 | 19.0 | 0.00 | 0.00 | 0.00 | 79 | 1005.7 |
| 20260505151131 | 76 | 219 | 9.0 | 21.0 | 0.00 | 0.00 | 0.00 | 79 | 1005.6 |
| 20260505150630 | 75 | 211 | 10.0 | 23.0 | 0.00 | 0.00 | 0.00 | 80 | 1005.6 |
| 20260505150133 | 75 | 182 | 5.0 | 23.0 | 0.00 | 0.00 | 0.00 | 80 | 1005.7 |
| 20260505140630 | 74 | 209 | 10.0 | 22.0 | 0.00 | 0.00 | 0.00 | 82 | 1005.5 |
| 20260505140129 | 74 | 40 | 12.0 | 22.0 | 0.00 | 0.00 | 0.00 | 82 | 1005.5 |
| 20260505130129 | 71 | 29 | 18.0 | 21.0 | 0.00 | 0.00 | 0.00 | 86 | 1005.1 |
| 20260505124627 | 71 | 24 | 12.0 | 18.0 | 0.00 | 0.00 | 0.00 | 87 | 1005.0 |
| 20260505124128 | 71 | 23 | 8.0 | 16.0 | 0.00 | 0.00 | 0.00 | 87 | 1005.0 |
| 20260505123628 | 71 | 23 | 8.0 | 16.0 | 0.00 | 0.00 | 0.00 | 87 | 1004.9 |
| 20260505123127 | 70 | 24 | 6.0 | 14.0 | 0.00 | 0.00 | 0.00 | 87 | 1005.0 |
| 20260505122628 | 70 | 22 | 6.0 | 16.0 | 0.00 | 0.00 | 0.00 | 87 | 1004.9 |
| 20260505122128 | 70 | 24 | 4.0 | 19.0 | 0.00 | 0.00 | 0.00 | 87 | 1004.8 |
| 20260505121628 | 70 | 24 | 8.0 | 21.0 | 0.00 | 0.00 | 0.00 | 87 | 1004.8 |